This is the latest recevied weather packets stored in our database for station/object DM1HF-13. If no packets are shown the sender has not sent any weather packets the latest 10 day(s).
| Time | Temp. | Humidity | Pressure | Rain* | Wind** | Luminosity | Snow |
|---|---|---|---|---|---|---|---|
| 1777552217 | 17.22° C | 30% | 1033 hPa | 0 mm | - | 634 W/m² | - |
| 1777551917 | 16.67° C | 32% | 1033 hPa | 0 mm | - | 639 W/m² | - |
| 1777551617 | 16.67° C | 31% | 1033.1 hPa | 0 mm | - | 646 W/m² | - |
| 1777551316 | 16.11° C | 30% | 1033.1 hPa | 0 mm | - | 644 W/m² | - |
| 1777551017 | 16.67° C | 28% | 1033 hPa | 0 mm | - | 650 W/m² | - |
| 1777550717 | 17.22° C | 28% | 1033.2 hPa | 0 mm | - | 652 W/m² | - |
| 1777550417 | 17.22° C | 28% | 1033.3 hPa | 0 mm | - | 650 W/m² | - |
| 1777550117 | 17.22° C | 28% | 1033.4 hPa | 0 mm | - | 654 W/m² | - |
| 1777549817 | 17.22° C | 28% | 1033.4 hPa | 0 mm | - | 658 W/m² | - |
| 1777549517 | 16.67° C | 26% | 1033.3 hPa | 0 mm | - | 660 W/m² | - |
| 1777549217 | 16.67° C | 28% | 1033.4 hPa | 0 mm | - | 661 W/m² | - |
| 1777548917 | 16.67° C | 28% | 1033.4 hPa | 0 mm | - | 657 W/m² | - |
| 1777548617 | 16.67° C | 26% | 1033.5 hPa | 0 mm | - | 656 W/m² | - |
| 1777548317 | 16.67° C | 27% | 1033.6 hPa | 0 mm | - | 656 W/m² | - |
| 1777548017 | 16.67° C | 29% | 1033.5 hPa | 0 mm | - | 651 W/m² | - |
| 1777547717 | 16.67° C | 27% | 1033.7 hPa | 0 mm | - | 655 W/m² | - |
| 1777547417 | 16.11° C | 28% | 1033.7 hPa | 0 mm | - | 649 W/m² | - |
| 1777547117 | 15.56° C | 27% | 1033.7 hPa | 0 mm | - | 651 W/m² | - |
| 1777546817 | 16.11° C | 27% | 1033.7 hPa | 0 mm | - | 649 W/m² | - |
| 1777546517 | 16.11° C | 28% | 1033.8 hPa | 0 mm | - | 644 W/m² | - |
| 1777546217 | 15.56° C | 28% | 1033.9 hPa | 0 mm | - | 636 W/m² | - |
| 1777545917 | 15.56° C | 28% | 1033.9 hPa | 0 mm | - | 632 W/m² | - |
| 1777545617 | 15° C | 29% | 1033.9 hPa | 0 mm | - | 628 W/m² | - |
| 1777545317 | 15.56° C | 28% | 1033.9 hPa | 0 mm | - | 622 W/m² | - |
| 1777545017 | 15.56° C | 27% | 1033.9 hPa | 0 mm | - | 616 W/m² | - |
* Rain latest hour (hover to see other rain measurements)
** Current wind speed in m/s (hover to see current wind gust speed)